Flight Track Log - Related Links

Times and Time Zones

All times are in EDT time to prevent confusion due to time zone crossing. See the UCA4770 flight status page for this flight to view local times or setup timezone preferences in your user account.


Time Position Orientation Groundspeed Altitude Reporting Facility
EDT Latitude Longitude Course Direction KTS MPH feet Rate Location/Type
Sun 07:23:19 PM 40.5586 -80.5519 284° West 173 199 8,100  Level FAA TRACON SMA TRACON (SMA)
Sun 07:23:58 PM 40.5669 -80.5944 285° West 173 199 9,000 1,215 Climbing FAA TRACON SMA TRACON (SMA)
Sun 07:24:38 PM 40.5750 -80.6328 287° West 174 200 9,700 741 Climbing FAA TRACON SMA TRACON (SMA)
Sun 07:25:19 PM 40.5853 -80.6783 288° West 191 220 10,000 225 Climbing FAA TRACON SMA TRACON (SMA)
Sun 07:25:58 PM 40.5986 -80.7322 297° West 226 260 10,000  Level FAA TRACON SMA TRACON (SMA)
Sun 07:26:39 PM 40.6183 -80.7831 298° West 226 260 10,000  Level FAA TRACON SMA TRACON (SMA)
Sun 07:27:36 PM 40.6442 -80.8458 295° West 220 253 10,000  Level Cleveland Center
Sun 07:28:36 PM 40.6711 -80.9225 295° West 227 261 10,000  Level Cleveland Center
Sun 07:29:36 PM 40.6981 -80.9994 296° West 237 273 10,000  Level Cleveland Center
Sun 07:30:36 PM 40.7311 -81.0872 294° West 237 273 10,000 -150 Level Cleveland Center
Sun 07:31:36 PM 40.7578 -81.1669 297° West 237 273 9,700 -500 Descending Cleveland Center
Sun 07:32:36 PM 40.7886 -81.2467 291° West 237 273 9,000 -457 Descending Cleveland Center
Sun 07:33:08 PM 40.8008 -81.2881 295° West 247 284 9,000  Level Cleveland Center
Sun 07:34:08 PM 40.8294 -81.3706 295° West 240 276 9,000  Level Cleveland Center
Sun 07:35:09 PM 40.8581 -81.4533 295° West 237 273 9,000  Level Cleveland Center
Sun 07:36:22 PM 40.8906 -81.5444 294° West 237 273 9,000  Level Cleveland Center
Sun 07:37:28 PM 40.9211 -81.6356 311° West 236 272 9,000  Level Cleveland Center
Sun 07:38:11 PM 40.9519 -81.6828 319° Northwest 236 272 9,000  Level Cleveland Center
Sun 07:39:36 PM 41.0158 -81.7553 316° Northwest 237 273 9,000 -189 Level Cleveland Center
Sun 07:40:18 PM 41.0550 -81.8056 333° Northwest 240 276 8,600 -826 Descending Cleveland Center
Sun 07:41:25 PM 41.1233 -81.8511 337° Northwest 256 295 7,500 -1,286 Descending Cleveland Center
Sun 07:42:38 PM 41.2081 -81.8997 333° Northwest 263 303 5,600 -1,559 Descending Cleveland Center
Sun 07:43:32 PM 41.2619 -81.9367 North 259 298 4,200 -1,689 Descending Cleveland Center
Sun 07:44:21 PM 41.3203 -81.9350 19° North 244 281 2,700 -1,293 Descending Cleveland Center
Sun 07:45:28 PM 41.3728 -81.9114 49° Northeast 166 191 1,700 -850 Descending Cleveland Center
Sun 07:46:28 PM 41.3981 -81.8731 49° Northeast 132 152 900 -800 Descending Cleveland Center

Login

Don't have an account? Register now (free) for customized features, flight alerts, and more!